Seattle, WA
on Wednesday, November 21, 2012

Wednesday
Previous Day Next Day
Daily Summary
 ActualAverageRecord
Temperature
Mean Temperature °F 44°F  
Max Temperature 47°F 50°F 62°F (1954)
Min Temperature 39°F 39°F 21°F (1977)
Degree Days
Heating Degree Days 22 21  
Month to date heating degree days 355 390  
Since 1 July heating degree days 848 987  
Cooling Degree Days 0 0  
Month to date cooling degree days 0 0  
Year to date cooling degree days 177 189  
Moisture
Dew Point 38°F   
Average Humidity 83    
Maximum Humidity 89    
Minimum Humidity 76    
Precipitation
Precipitation 0.44 in 0.23 in 1.26 in (1980)
Month to date precipitation 5.45 4.58  
Year to date precipitation 38.58 30.15  
Snow
Snow 0.00 in in 7.80 in (1985)
Month to date snowfall 0.0  
Since 1 July snowfall 0.0  
Snow Depth 0.00 in   
Wind
Wind Speed 12 mph   
Max Wind Speed 33 mph   
Max Gust Speed 46 mph   
Visibility 9 miles   
Events Rain   

Key: T is trace of precipitation, MM is missing value
Source: NWS Daily Summary
Time(PST)TemperatureDew PointHumidity Pressure Visibility Wind DirectionWind SpeedGust SpeedPrecipitationEvents Conditions
12:53 AM 44.1°F 37.9°F 79% 29.56 in 10.0 miles Calm Calm - 0.00 in   Overcast
1:53 AM 44.1°F 39.0°F 82% 29.56 in 5.0 miles West 5.8 mph 20.7 mph 0.03 in Rain Rain
2:53 AM 44.1°F 39.9°F 85% 29.56 in 10.0 miles ESE 6.9 mph - 0.03 in   Overcast
3:53 AM 46.0°F 39.0°F 76% 29.57 in 10.0 miles South 12.7 mph - N/A   Overcast
4:53 AM 46.0°F 39.0°F 76% 29.60 in 10.0 miles South 12.7 mph - 0.01 in   Overcast
5:39 AM 44.6°F 39.2°F 81% 29.60 in 10.0 miles SSW 29.9 mph 46.0 mph 0.01 in Rain Light Rain
5:53 AM 44.1°F 39.0°F 82% 29.66 in 8.0 miles SW 20.7 mph 41.4 mph 0.04 in Rain Light Rain
6:53 AM 44.1°F 39.0°F 82% 29.72 in 10.0 miles SSW 19.6 mph 28.8 mph 0.03 in Rain Light Rain
7:53 AM 44.1°F 39.0°F 82% 29.78 in 10.0 miles South 16.1 mph - 0.00 in   Mostly Cloudy
8:53 AM 43.0°F 37.9°F 82% 29.83 in 6.0 miles SSW 21.9 mph 31.1 mph 0.00 in Rain Light Rain
9:53 AM 42.1°F 39.0°F 89% 29.86 in 7.0 miles SW 5.8 mph - 0.10 in Rain Light Rain
10:13 AM 42.8°F 39.2°F 87% 29.85 in 7.0 miles SSW 6.9 mph - 0.01 in Rain Light Rain
10:53 AM 44.1°F 39.9°F 85% 29.88 in 6.0 miles SSW 16.1 mph 24.2 mph 0.05 in Rain Rain
11:53 AM 43.0°F 39.0°F 86% 29.91 in 9.0 miles SSW 13.8 mph 24.2 mph 0.07 in Rain Light Rain
12:10 PM 42.8°F 39.2°F 87% 29.88 in 10.0 miles South 12.7 mph 20.7 mph 0.00 in   Mostly Cloudy
12:53 PM 44.1°F 39.0°F 82% 29.92 in 5.0 miles South 15.0 mph 24.2 mph 0.00 in Rain Light Rain
12:58 PM 44.6°F 39.2°F 81% 29.90 in 6.0 miles South 12.7 mph 24.2 mph 0.01 in Rain Light Rain
1:53 PM 43.0°F 37.9°F 82% 29.96 in 7.0 miles SW 5.8 mph - 0.07 in Rain Light Rain
2:53 PM 44.1°F 39.0°F 82% 29.99 in 10.0 miles SSW 15.0 mph 25.3 mph 0.01 in Rain Light Rain
3:39 PM 44.6°F 39.2°F 81% 30.00 in 10.0 miles SSW 11.5 mph - N/A   Mostly Cloudy
3:53 PM 45.0°F 39.0°F 80% 30.04 in 10.0 miles SSW 20.7 mph 28.8 mph N/A   Mostly Cloudy
4:53 PM 44.1°F 37.0°F 76% 30.08 in 10.0 miles SSW 15.0 mph 20.7 mph N/A   Mostly Cloudy
5:31 PM 44.6°F 37.4°F 76% 30.08 in 10.0 miles SSW 11.5 mph - N/A   Mostly Cloudy
5:53 PM 44.1°F 37.9°F 79% 30.12 in 10.0 miles South 10.4 mph - N/A   Mostly Cloudy
6:53 PM 43.0°F 37.9°F 82% 30.16 in 10.0 miles South 11.5 mph - N/A   Mostly Cloudy
7:53 PM 43.0°F 37.0°F 80% 30.20 in 10.0 miles South 10.4 mph - N/A   Mostly Cloudy
8:53 PM 42.1°F 36.0°F 79% 30.24 in 10.0 miles South 11.5 mph - N/A   Mostly Cloudy
9:34 PM 42.8°F 35.6°F 76% 30.24 in 10.0 miles South 10.4 mph - N/A   Scattered Clouds
9:53 PM 42.1°F 36.0°F 79% 30.27 in 10.0 miles South 10.4 mph - N/A   Scattered Clouds
10:53 PM 42.1°F 36.0°F 79% 30.30 in 10.0 miles SSW 10.4 mph - N/A   Scattered Clouds
11:03 PM 42.8°F 35.6°F 76% 30.27 in 10.0 miles SSW 8.1 mph - N/A   Mostly Cloudy
11:18 PM 41.0°F 35.6°F 81% 30.28 in 10.0 miles SSW 9.2 mph - N/A   Scattered Clouds
11:53 PM 39.0°F 35.1°F 86% 30.32 in 10.0 miles SSE 8.1 mph - N/A   Scattered Clouds
Moon Phase
Nov. 21 Nov. 28 Dec. 06 Dec. 13 Dec. 20
Sunrise:07:23 AM (PST) Moon Rise:01:08 PM (PST)11/21
Sunset:04:26 PM (PST) Moon Set:12:22 AM (PST)11/21

Copyright © 2014 The Weather Underground, Inc.